Location: Bern�tre
(50.1974°N, 2.0915°E)
Time: 06:25:08
(UTC+00:00)

Cosmos 2233 Rocket - Pass Details

Date: 18 September 2020
Orbit: 952 x 991 km, 82.9° (Epoch: 22 October)

Event Time Altitude Azimuth Distance (km) Brightness Sun altitude
Rises 18:41:58 0° 189° (S) 3,669 7.0 -7.8°
Reaches altitude 10° 18:44:28 10° 190° (S) 2,720 6.3 -8.2°
Maximum altitude 18:50:43 84° 279° (W) 983 4.1 -9.2°
Drops below altitude 10° 18:56:57 10° 9° (N) 2,712 6.4 -10.2°
Sets 18:59:27 0° 10° (N) 3,657 7.1 -10.6°
